GFSFLT1_500_spd_060.txt.gz
Wind_Speed
10 10 11 8 14 18 17 15 18 20 16 16 20 23 24 19 21 22 25 22 22 24 25 27 29 24 23 24 23 24 24 24
10 12 14 4 9 13 19 22 19 17 17 19 19 22 21 26 24 23 28 26 25 25 24 25 25 20 19 16 20 24 23 23
6 8 9 12 3 9 12 17 23 23 20 21 21 27 26 27 29 27 32 33 29 27 25 23 22 18 22 24 22 21 22 26
6 6 6 7 7 6 5 4 8 12 23 25 24 26 30 33 31 26 30 31 25 28 26 24 27 26 24 21 20 22 24 25
5 7 2 1 4 4 5 4 4 2 6 6 15 22 17 22 23 25 24 20 20 22 24 24 26 24 19 18 23 26 26 27
1 3 4 3 3 5 5 5 5 5 7 8 11 15 14 15 15 16 19 20 20 22 22 22 22 20 20 25 27 27 28 29
2 2 4 5 5 4 3 3 4 5 6 8 10 11 13 12 13 14 16 17 19 22 22 21 20 18 22 26 25 25 29 33
8 5 4 5 6 6 6 6 6 6 6 6 7 9 10 11 13 14 13 17 21 21 18 17 17 16 17 17 19 27 30 36
9 9 7 6 6 7 8 8 9 9 9 8 10 12 13 13 15 16 16 17 16 17 18 18 20 19 21 21 24 25 22 27
14 13 12 10 10 9 9 9 11 12 11 9 10 10 12 15 17 17 16 17 17 19 21 23 24 25 25 24 26 29 30 29
16 15 16 15 14 11 10 11 12 12 12 12 13 14 14 16 16 19 19 20 21 22 23 25 28 31 31 31 29 32 32 32
18 15 14 14 13 12 11 12 15 15 15 17 18 19 22 23 25 25 22 25 25 27 32 29 36 41 35 35 35 33 34 34
21 15 11 14 17 16 15 17 18 18 20 21 22 24 25 27 25 26 30 33 34 39 38 39 37 42 31 28 35 31 32 36
21 20 20 23 24 23 21 19 19 21 23 24 24 21 19 20 17 19 25 25 31 36 32 37 23 24 28 29 31 34 35 39
28 26 23 26 24 23 25 24 22 23 23 25 25 25 23 23 24 27 26 28 29 29 27 22 24 27 29 31 33 36 38 41
25 28 21 24 27 26 28 26 26 26 24 24 23 24 24 25 26 27 30 31 30 28 28 28 29 31 32 32 35 38 41 42
34 28 30 28 26 27 28 29 31 30 30 28 25 25 26 25 27 28 29 33 33 33 33 32 35 33 33 36 37 39 41 45
36 32 27 24 27 25 25 26 32 32 32 29 27 26 28 29 29 30 30 32 34 34 34 34 34 37 38 38 40 42 45 47
35 36 28 24 23 26 25 28 31 32 33 31 28 27 28 29 30 30 30 33 34 36 36 37 41 41 42 43 46 47 50 53

GFSFLT1_500_spd_063.txt.gz
Wind_Speed
14 16 19 16 14 18 15 18 12 20 15 16 21 23 21 24 18 21 24 22 24 23 24 28 29 28 24 25 23 22 24 26
13 14 17 18 5 13 14 15 17 15 19 18 19 19 18 21 21 18 21 23 24 25 26 25 27 27 29 25 21 18 22 24
12 11 12 14 6 9 15 19 20 16 24 22 22 23 23 20 19 20 25 24 28 30 31 30 28 27 25 21 19 18 16 20
9 9 10 8 9 8 3 6 11 18 23 24 23 25 21 23 23 25 27 24 29 32 32 31 27 22 20 18 18 20 22 19
6 4 5 4 3 3 4 4 3 4 18 24 22 23 28 29 29 28 31 28 30 33 37 27 22 24 21 20 24 25 24 21
4 5 2 4 4 3 2 1 1 2 6 7 20 22 20 16 19 29 32 32 28 30 23 22 24 25 28 27 26 24 24 25
6 4 5 4 5 5 4 2 1 1 2 3 6 9 10 10 10 7 8 12 13 15 18 21 25 26 31 31 28 27 29 29
10 7 6 5 6 7 6 5 5 3 2 3 4 5 6 8 10 12 12 14 15 17 20 25 27 29 30 30 29 31 31 26
11 9 9 8 8 8 8 8 6 6 6 5 6 7 8 9 10 12 13 13 16 19 20 23 26 26 28 28 27 26 26 23
14 13 12 11 13 13 11 9 9 9 8 8 8 8 9 11 12 14 15 17 19 18 20 26 27 27 27 29 27 30 30 28
18 16 16 17 17 17 15 14 13 11 11 12 12 12 12 12 12 15 19 21 22 23 25 27 29 30 31 31 32 32 33 33
20 21 18 20 16 16 14 14 14 14 15 15 15 15 14 15 15 18 20 23 25 25 27 29 29 32 35 36 35 34 37 36
22 21 20 18 14 13 15 17 18 18 18 19 17 19 20 19 21 23 23 30 30 30 31 34 31 35 38 40 40 38 43 42
21 20 21 17 17 19 19 20 23 23 21 20 22 22 22 21 22 20 19 20 21 26 28 25 30 36 38 40 48 40 36 35
22 22 25 25 24 23 26 24 23 24 25 23 23 26 26 25 26 26 25 25 28 28 29 28 27 31 33 31 32 33 35 36
30 29 32 32 30 26 28 31 27 27 26 26 23 23 27 28 27 27 29 28 29 31 31 32 30 32 33 36 32 35 39 42
33 35 32 33 33 30 30 33 34 32 27 25 28 26 27 27 28 31 31 32 32 33 33 34 37 36 36 38 39 39 39 40
30 34 35 35 33 32 32 30 33 35 34 27 28 30 30 32 32 31 31 32 33 34 37 39 40 41 41 40 42 42 43 44
31 29 29 31 33 30 29 28 29 29 31 33 34 36 35 35 34 33 32 32 33 33 33 35 38 40 42 43 42 45 46 48

GFSFLT1_500_spd_066.txt.gz
Wind_Speed
17 15 14 13 10 12 15 15 15 16 21 20 21 23 22 28 32 31 27 25 25 37 33 32 31 27 27 30 32 29 27 26
14 14 14 16 8 9 15 13 16 12 20 19 21 18 22 22 22 25 28 27 25 21 24 26 26 25 28 29 30 29 25 24
11 12 11 11 10 4 13 15 13 15 17 20 22 21 26 14 25 19 24 25 23 20 24 24 25 27 29 28 29 30 25 20
8 9 9 7 8 5 7 13 17 21 19 24 21 22 23 25 20 21 22 23 27 23 27 29 30 31 32 28 27 26 21 18
7 7 7 5 4 3 2 7 10 14 19 24 26 24 26 27 26 23 23 26 30 24 26 30 32 34 32 29 25 22 18 20
8 6 5 6 4 4 2 2 4 4 2 20 28 28 25 26 24 27 29 28 26 27 28 32 36 36 27 21 21 24 24 22
13 8 4 4 5 5 4 2 4 2 2 5 8 19 24 27 26 27 29 34 34 32 31 30 32 25 24 25 22 25 22 26
11 11 8 5 4 4 4 5 4 4 2 3 6 6 9 13 13 8 7 13 21 21 22 22 24 25 24 26 25 30 30 30
10 9 9 8 7 6 5 5 6 5 5 5 5 8 10 10 10 10 12 12 13 15 17 21 21 21 22 24 25 29 30 32
13 11 10 9 11 12 10 9 8 8 8 8 8 10 9 11 10 12 12 13 13 14 15 16 18 20 21 23 27 29 33 31
17 14 14 12 14 15 15 13 13 12 12 13 13 12 11 11 12 13 14 16 18 17 18 19 21 22 24 27 29 31 35 36
21 19 17 18 15 14 15 13 13 12 12 13 13 14 13 14 13 15 15 15 19 20 23 24 24 26 29 32 34 37 40 42
25 25 21 19 19 16 13 11 13 15 16 15 15 15 13 14 19 20 21 22 19 22 27 30 31 29 31 34 37 40 44 44
25 25 26 22 20 20 18 16 18 19 18 21 22 20 20 19 20 22 22 21 21 21 24 22 26 30 30 31 33 33 38 42
30 29 28 26 24 24 24 22 22 23 24 25 23 25 26 25 25 25 25 26 27 27 27 27 29 30 33 34 33 36 39 38
31 33 32 30 30 31 32 30 31 29 27 25 26 28 28 27 26 26 28 29 30 32 32 31 35 36 34 40 38 38 38 36
35 35 34 33 35 35 38 36 33 33 32 31 32 30 32 32 31 28 27 29 32 36 34 35 37 37 37 41 45 44 45 43
39 41 40 39 39 38 38 37 37 37 38 35 33 33 30 31 33 32 31 32 35 36 37 37 37 37 38 40 44 46 46 45
39 39 40 39 40 42 40 41 40 37 39 39 37 30 32 37 39 39 39 38 35 36 38 39 39 37 36 38 41 44 44 45

GFSFLT1_500_spd_069.txt.gz
Wind_Speed
16 15 12 14 16 14 16 10 10 5 10 12 22 28 26 31 34 30 28 28 37 33 34 38 50 44 43 38 38 33 33 33
16 14 11 11 13 11 10 12 12 11 17 12 17 19 23 31 32 30 30 27 29 26 27 27 33 53 43 36 35 31 33 33
13 13 10 9 9 6 5 11 9 12 13 16 18 20 16 18 25 30 29 29 27 22 16 15 26 31 31 31 29 28 28 27
11 11 8 6 8 7 2 6 10 13 14 13 14 15 15 17 17 16 18 21 21 26 18 20 23 24 25 26 27 26 18 19
10 11 8 5 4 5 5 3 3 11 16 18 17 21 22 22 24 20 21 17 19 23 24 23 26 26 27 28 28 26 18 19
5 9 11 6 2 2 3 2 2 3 4 12 21 25 25 23 22 23 23 20 21 25 25 29 24 27 28 29 24 19 21 21
7 7 7 7 5 2 2 3 1 2 5 8 14 25 27 25 25 22 25 27 26 27 26 25 28 28 27 26 23 21 23 24
11 9 6 6 3 2 0 2 4 4 3 3 3 7 20 23 26 26 20 18 24 33 31 31 28 33 28 29 26 25 26 25
14 12 7 6 5 2 2 2 2 4 6 6 5 5 5 8 10 13 13 10 8 11 20 24 23 25 24 25 25 25 29 26
15 12 10 8 6 6 7 7 5 4 6 7 7 8 9 11 12 13 14 13 13 12 12 13 17 19 21 22 22 25 27 25
18 16 14 12 11 8 10 11 11 11 9 8 9 11 10 11 13 14 15 14 14 14 14 16 19 19 20 21 21 24 25 26
21 21 19 16 14 14 13 13 11 9 10 8 8 10 11 13 16 17 16 16 16 17 19 21 22 23 24 26 25 26 29 31
24 23 23 22 22 19 19 17 15 14 13 13 11 10 11 14 17 20 20 19 21 24 22 25 24 25 28 28 28 30 33 35
28 26 25 26 25 23 21 20 19 17 16 18 18 17 17 18 19 19 21 21 21 21 20 18 23 25 27 29 32 33 34 38
32 30 29 29 27 26 24 22 25 24 22 21 22 24 24 26 25 25 25 25 25 24 24 24 26 27 29 29 30 32 33 35
36 35 34 32 32 30 28 27 29 30 29 28 25 25 27 26 28 29 30 30 29 30 30 29 30 32 31 31 34 37 39 39
44 41 38 35 35 34 34 32 32 35 34 31 32 31 31 32 33 32 33 34 33 32 32 33 33 34 35 36 39 42 44 45
42 43 42 39 38 39 38 37 38 37 36 34 33 34 34 33 34 36 35 34 35 34 34 36 38 38 37 38 40 44 46 47
45 47 45 45 44 44 43 43 43 42 42 41 41 39 36 36 34 34 35 35 36 38 40 41 42 42 43 42 42 46 48 47

GFSFLT1_500_spd_072.txt.gz
Wind_Speed
15 14 13 17 18 21 17 14 11 6 7 6 18 27 33 36 36 31 27 27 28 21 29 34 26 33 38 50 49 42 38 37
14 12 11 14 14 18 15 8 10 13 11 6 10 14 25 21 24 28 28 29 26 23 28 29 29 32 31 49 48 41 40 40
11 10 10 9 11 14 13 8 8 8 10 10 7 8 15 21 23 27 29 26 25 24 22 27 25 28 25 42 47 42 34 34
9 7 8 7 7 10 12 8 9 6 6 5 8 8 10 11 15 25 26 26 26 25 23 18 18 17 17 20 29 30 29 25
8 4 5 7 7 6 7 7 5 5 10 11 10 11 13 14 13 12 15 16 19 21 21 22 15 13 14 17 22 22 23 22
8 5 2 5 5 6 6 4 3 1 3 6 10 14 15 17 15 14 18 19 15 15 19 18 20 17 19 21 23 21 21 25
12 8 5 4 3 4 5 5 3 3 3 4 6 9 16 18 18 17 18 18 21 17 15 18 22 20 22 24 24 25 31 22
16 12 8 6 3 3 3 4 5 4 4 3 6 9 4 19 22 21 19 19 18 20 26 29 24 24 23 27 28 32 29 26
17 12 9 7 7 5 4 4 3 3 4 5 4 4 4 2 7 9 13 14 15 12 13 23 28 28 27 29 30 27 27 26
19 14 10 8 8 7 6 7 8 7 5 4 5 5 5 6 8 8 7 10 12 12 10 7 10 15 20 23 20 19 22 25
18 16 13 10 10 11 9 9 10 12 10 8 7 7 8 7 10 13 14 17 17 16 14 13 13 14 16 17 17 16 20 23
21 18 16 15 14 13 15 12 9 10 10 9 9 9 9 10 12 13 14 15 15 16 16 17 17 18 20 20 19 21 22 24
24 22 20 19 19 18 17 18 19 16 13 12 11 10 11 12 14 14 15 17 14 16 18 18 20 22 24 24 24 25 26 28
25 25 25 24 23 22 21 19 18 16 18 16 14 14 14 16 17 16 17 17 18 19 19 21 21 21 23 24 26 29 32 34
27 30 29 28 26 24 23 22 22 19 19 20 21 21 21 23 22 21 21 23 22 23 24 24 23 24 23 24 26 28 30 33
27 31 34 32 31 28 27 27 25 24 23 23 25 26 26 22 21 23 25 26 25 26 26 26 28 28 28 30 32 33 34 36
37 37 35 37 37 35 34 32 31 30 27 26 28 29 28 28 27 29 29 29 29 31 32 32 31 30 29 31 34 36 38 40
39 41 38 40 40 38 37 36 37 34 32 31 31 32 31 29 31 31 29 29 32 31 32 35 35 36 36 37 37 40 42 43
35 39 34 43 43 41 42 41 41 40 37 37 37 37 37 38 37 35 35 34 34 33 30 31 33 34 37 38 40 44 46 47

GFSFLT1_500_spd_075.txt.gz
Wind_Speed
14 12 15 14 12 15 16 15 6 9 6 5 9 20 25 32 33 34 34 35 29 32 34 35 31 24 19 22 39 40 39 38
11 11 12 11 10 12 14 12 6 9 6 3 4 15 27 30 32 37 30 31 23 24 25 20 16 17 23 22 28 39 38 44
12 10 8 7 8 11 12 8 6 6 5 6 5 5 12 23 26 30 27 29 28 24 19 16 17 18 24 26 25 28 29 35
11 10 6 5 6 9 10 9 4 5 5 6 4 3 9 10 22 18 21 23 20 21 21 21 21 21 24 23 25 27 28 29
10 10 6 2 3 7 8 9 7 3 3 5 3 3 7 6 8 11 14 14 19 23 22 23 21 18 21 22 22 23 22 23
11 11 8 3 2 4 7 6 5 4 2 3 4 7 8 9 9 9 11 10 10 13 15 15 19 18 16 17 17 15 16 20
15 13 8 6 5 4 5 5 3 1 1 1 2 3 8 12 13 14 14 13 15 16 12 12 15 19 18 19 20 20 21 24
18 14 12 10 7 6 5 5 4 3 2 2 1 1 1 14 16 17 16 15 14 18 19 18 21 22 23 23 22 22 24 25
19 15 12 13 10 8 6 5 4 4 3 2 3 3 4 5 15 17 17 17 16 15 17 21 24 26 29 26 24 28 27 31
21 18 13 15 11 11 9 7 7 7 6 5 3 1 2 2 5 5 5 6 9 11 12 13 12 15 23 27 28 28 29 29
22 19 17 16 14 12 12 10 8 9 10 9 8 6 4 4 5 7 8 8 10 11 13 15 14 11 12 15 18 21 21 22
17 19 18 18 16 16 15 15 12 10 7 8 7 9 9 9 7 8 9 11 12 13 13 15 15 15 15 16 18 20 21 24
17 20 22 20 20 20 18 16 15 17 14 12 10 9 9 9 8 9 9 10 12 13 13 16 17 16 19 19 21 22 22 23
22 22 24 25 23 21 21 21 18 15 15 14 14 14 13 12 12 13 13 12 13 13 16 18 20 22 22 22 23 25 25 26
22 25 28 29 27 25 24 22 22 21 18 15 17 19 20 19 17 18 18 18 18 20 20 21 22 22 21 23 24 24 27 28
24 23 24 25 29 30 30 27 25 23 21 20 19 22 23 23 22 21 19 18 21 23 23 23 25 25 25 26 27 28 30 33
32 30 30 30 27 28 27 28 29 28 27 27 26 25 24 25 26 26 26 26 26 26 24 26 28 30 29 30 32 32 34 35
35 35 35 33 32 32 31 30 30 29 28 32 33 34 32 31 29 29 29 29 29 28 26 29 31 31 32 33 35 38 39 40
38 40 39 42 41 40 38 34 31 33 33 36 36 36 36 37 37 35 35 35 34 34 33 37 34 32 33 34 36 39 38 38

GFSFLT1_500_spd_078.txt.gz
Wind_Speed
13 20 17 14 15 18 18 16 10 11 12 9 6 16 23 24 22 32 41 37 24 29 23 28 20 12 19 25 24 27 34 33
13 16 12 12 14 13 13 11 4 9 12 9 7 11 21 27 27 28 32 30 36 23 21 32 27 25 27 29 25 22 31 34
10 12 12 12 11 9 9 11 6 6 11 10 8 8 18 23 31 32 34 29 30 29 28 26 28 19 22 24 21 18 22 29
11 10 12 12 10 7 7 9 8 7 6 6 9 6 10 20 29 32 31 32 32 29 28 22 21 23 25 23 22 20 22 23
11 10 11 11 9 8 5 6 8 3 5 5 7 5 6 12 17 25 26 27 30 31 27 25 24 26 25 23 22 21 23 21
14 10 12 11 9 8 5 4 4 2 1 6 7 7 9 10 11 20 29 23 26 26 26 27 24 24 23 24 17 17 18 19
13 15 14 12 9 8 7 7 4 2 3 4 5 6 9 12 17 18 18 19 20 20 21 20 18 18 20 18 16 16 19 22
15 15 17 12 10 8 7 8 6 5 3 4 3 2 3 15 19 18 18 18 18 19 20 17 17 19 20 18 21 25 26 27
5 13 20 16 12 9 8 8 7 3 2 2 2 2 1 3 17 19 18 19 18 17 21 22 18 18 21 25 28 32 32 31
7 19 20 17 14 12 11 10 9 6 4 3 3 2 1 4 7 11 13 13 15 18 16 17 16 16 20 25 31 35 30 30
16 23 22 19 16 15 14 14 11 8 8 7 6 5 4 3 6 8 9 7 8 10 12 14 15 15 15 12 11 23 28 30
14 25 26 24 20 18 17 16 15 11 9 8 8 6 6 6 7 8 9 10 11 12 13 14 14 16 16 14 13 17 20 23
16 19 26 24 23 21 21 18 18 15 13 11 10 10 9 8 9 10 9 10 11 10 12 13 14 16 17 15 16 18 21 23
20 22 24 25 25 25 24 22 21 18 15 12 12 14 13 12 12 11 11 11 12 14 15 16 18 18 18 19 19 20 22 25
19 19 22 26 29 30 28 26 25 24 21 18 16 17 18 17 16 16 16 17 19 20 20 21 22 23 22 23 24 25 25 25
20 18 16 18 22 26 30 29 28 26 26 24 24 23 20 20 22 23 23 20 19 22 22 22 25 27 27 29 30 31 31 32
26 24 23 21 21 21 22 26 26 26 23 25 27 28 27 26 25 25 26 26 25 26 26 28 28 26 28 30 32 34 37 37
31 30 29 28 26 26 26 27 28 28 27 28 30 31 32 32 31 30 30 30 30 30 31 32 29 28 28 30 34 37 37 39
34 34 33 31 29 30 30 31 32 34 33 33 34 33 34 35 35 35 35 37 36 36 35 36 37 35 36 37 41 41 41 39

GFSFLT1_500_spd_081.txt.gz
Wind_Speed
24 21 28 19 23 16 21 20 21 23 16 15 13 12 19 19 20 21 27 47 46 29 24 25 26 24 22 23 23 18 18 26
24 21 23 16 18 19 18 15 16 15 10 13 15 15 18 24 20 19 38 47 36 32 31 30 25 23 20 19 19 26 24 24
19 22 18 15 17 19 14 13 11 12 12 14 19 17 16 28 24 19 40 41 36 28 27 29 26 29 27 24 27 29 24 23
18 23 15 17 16 17 13 12 8 9 11 12 11 9 14 24 28 22 28 42 35 32 27 25 25 27 29 31 25 24 23 20
18 21 18 17 15 15 12 11 6 6 7 8 7 6 9 24 33 30 26 27 32 34 32 27 26 27 26 28 26 23 24 21
19 19 18 17 15 12 12 10 6 3 4 7 9 7 9 14 28 33 30 31 30 32 32 30 31 29 25 24 24 24 25 26
23 22 21 17 16 12 10 10 8 5 4 5 5 7 9 10 19 25 34 31 30 22 27 30 31 28 25 26 24 25 26 24
27 22 20 18 16 12 10 9 6 6 6 6 6 7 6 13 18 23 27 30 31 29 28 27 29 26 25 26 26 25 26 22
27 22 17 18 15 13 12 8 5 3 4 5 6 7 7 8 18 20 21 22 20 20 20 23 26 24 24 25 24 27 26 25
19 17 15 18 16 15 15 11 8 6 5 5 5 4 4 5 13 21 21 20 19 18 17 22 23 20 21 21 25 26 29 29
21 18 14 15 17 15 16 14 12 9 7 9 8 6 4 2 3 16 18 19 18 20 22 22 23 26 22 20 18 20 29 34
18 15 18 18 22 17 16 15 14 12 10 9 8 8 7 5 6 8 11 12 12 12 14 18 20 20 21 21 18 17 15 20
16 18 23 25 24 22 20 18 17 15 14 13 11 10 9 7 8 10 10 11 12 13 14 15 16 19 18 17 20 20 19 20
22 23 26 24 26 26 25 23 21 18 17 15 14 14 14 13 11 11 13 14 14 15 16 17 18 18 18 19 21 22 23 24
26 27 28 24 26 28 27 27 25 23 22 20 19 17 15 17 17 17 16 17 17 18 19 19 20 21 22 23 25 26 27 28
27 26 26 23 26 26 26 25 23 23 22 22 22 22 20 19 19 21 21 21 21 22 22 24 27 26 27 29 32 33 34 35
33 31 26 28 29 28 29 30 30 28 27 26 25 24 23 24 24 24 23 24 26 26 25 26 27 28 29 31 33 35 37 37
37 33 28 27 26 23 19 22 24 24 28 31 31 31 29 27 27 28 29 30 31 30 31 31 32 32 33 36 37 37 37 36
39 34 33 29 29 27 25 24 25 27 26 26 30 31 30 31 34 35 35 36 36 36 37 37 39 37 39 40 40 44 45 44

GFSFLT1_500_spd_084.txt.gz
Wind_Speed
40 35 36 40 34 29 25 22 19 22 25 22 20 15 18 14 21 28 23 22 28 43 47 43 32 26 27 27 24 25 29 27
34 32 38 39 33 24 20 19 17 20 21 18 17 19 18 19 19 25 25 23 31 47 46 36 29 32 28 26 25 23 22 22
28 32 37 36 30 22 19 15 17 17 19 16 18 19 22 20 18 22 21 26 38 48 41 33 30 28 26 25 26 21 23 26
24 30 38 29 25 20 19 14 15 14 17 15 15 14 15 17 20 21 14 34 46 50 39 30 30 23 23 24 24 21 21 28
29 37 27 28 23 19 17 14 12 12 13 12 11 10 11 10 20 21 14 37 46 45 37 31 30 27 22 23 27 27 27 26
29 33 26 27 23 20 15 12 11 11 10 10 8 8 11 10 17 26 22 32 40 36 28 28 29 26 26 26 25 28 29 26
36 31 31 26 23 20 13 11 9 10 9 8 7 7 11 10 8 28 27 23 27 20 25 31 29 27 26 26 28 29 27 27
34 33 31 26 23 21 14 12 9 9 9 8 6 7 7 7 11 11 25 26 29 30 24 25 27 31 29 30 31 30 29 29
28 24 29 25 23 21 15 14 9 6 6 6 4 5 6 6 8 11 26 27 26 25 22 27 30 32 33 28 27 26 26 27
27 24 29 24 23 22 18 15 11 7 6 6 4 3 4 5 5 14 16 19 23 25 27 27 24 23 24 23 22 21 24 25
23 22 28 26 26 24 18 17 14 12 9 7 7 6 5 4 2 14 19 17 17 15 15 17 18 20 21 20 19 22 24 25
25 28 26 24 25 22 18 20 18 16 12 9 8 9 9 7 4 7 15 18 20 19 20 21 22 21 22 23 22 22 19 20
34 30 28 23 23 23 21 20 19 18 17 14 11 8 9 9 9 9 12 13 14 14 13 12 12 16 17 19 22 24 22 21
28 28 28 26 23 23 24 21 21 19 19 17 12 10 13 13 12 12 14 15 15 16 16 16 16 17 18 21 23 24 24 25
28 29 26 26 22 23 25 25 23 22 19 18 16 14 11 10 13 14 14 15 17 18 18 18 19 20 22 24 26 26 26 28
34 31 25 22 20 21 23 22 22 22 21 20 18 17 16 15 14 16 18 19 19 19 20 22 24 25 28 30 31 31 32 33
37 33 27 23 23 24 27 26 26 26 25 23 21 21 21 21 21 20 20 20 22 23 24 24 24 25 27 29 30 31 32 32
39 36 33 28 29 30 27 30 27 27 27 26 27 27 26 25 27 26 25 26 27 28 29 30 30 32 32 32 33 35 36 36
38 39 37 37 33 31 29 28 23 21 21 20 21 22 22 27 30 29 29 29 31 33 33 36 37 38 37 39 39 41 42 41

GFSFLT1_500_spd_087.txt.gz
Wind_Speed
39 35 40 41 34 38 38 35 36 32 24 24 24 26 23 16 17 17 19 24 27 26 28 27 37 44 42 31 29 30 26 28
36 33 37 37 34 34 34 36 36 27 24 20 23 24 21 20 18 17 16 25 29 27 28 30 42 45 40 33 32 31 28 25
33 30 33 35 31 31 33 36 32 24 21 21 21 20 19 21 24 24 21 27 32 27 26 35 43 48 29 32 33 29 29 30
29 28 31 34 29 28 36 34 27 20 19 20 17 17 17 19 19 22 20 25 29 37 30 37 42 39 35 34 33 31 23 23
27 27 30 26 25 30 34 29 21 18 18 16 15 13 14 15 20 15 24 27 28 31 39 42 44 29 32 34 33 30 29 27
26 29 31 27 25 35 26 25 17 15 16 14 13 11 12 11 19 17 23 18 24 34 45 47 44 32 38 37 31 28 31 29
27 32 31 28 30 30 25 22 16 14 16 12 12 8 8 7 13 6 20 23 21 40 46 48 41 42 34 31 27 28 29 31
32 34 27 27 31 28 24 21 16 13 14 12 12 8 6 5 6 10 15 21 22 42 43 38 35 33 34 30 28 28 29 29
34 33 28 29 32 26 24 21 17 15 12 9 9 8 5 4 5 6 12 22 23 34 26 26 26 29 31 27 27 28 28 31
31 27 29 33 27 26 24 24 20 15 12 9 8 7 5 4 4 6 6 22 15 18 21 28 24 27 36 28 29 29 28 26
29 29 28 31 27 26 26 25 23 17 13 10 7 8 7 5 5 5 13 14 19 24 26 24 21 23 26 27 26 23 22 18
34 29 29 25 24 26 27 26 25 18 14 12 9 9 10 7 5 4 11 13 17 18 16 15 14 17 20 19 19 20 18 20
34 32 32 24 23 25 27 26 26 19 17 13 9 7 7 7 4 2 5 9 10 12 13 12 14 17 20 20 21 23 23 21
35 36 31 30 23 24 28 30 24 21 18 15 11 8 7 7 6 4 6 7 8 9 10 11 12 11 12 17 19 20 21 22
30 32 33 35 25 25 28 30 24 21 19 16 14 12 9 7 8 8 7 8 11 11 12 13 14 15 17 19 21 23 24 25
32 31 40 33 29 28 26 27 25 22 21 19 17 16 14 12 11 10 11 11 11 12 13 15 16 19 21 22 23 24 25 26
34 31 32 30 27 26 25 24 27 26 23 21 20 20 20 18 17 16 16 16 18 19 20 20 20 22 22 22 23 24 26 27
38 34 33 31 29 27 27 29 29 29 27 26 26 24 23 22 21 20 20 21 23 24 24 25 26 24 24 26 26 27 30 30
43 38 35 34 33 32 29 29 28 29 31 30 25 23 19 19 19 21 23 23 24 25 27 27 27 28 29 31 33 34 36 37

GFSFLT1_500_spd_090.txt.gz
Wind_Speed
39 35 36 39 34 33 32 37 33 31 33 32 33 30 28 25 24 23 20 22 25 28 29 30 33 34 33 39 40 40 28 31
38 37 39 36 31 32 33 36 29 33 31 31 30 29 26 24 25 25 25 22 21 24 31 31 32 33 35 41 43 40 29 34
38 36 41 34 31 31 31 30 30 32 31 30 28 28 24 25 24 25 27 21 24 24 30 31 32 34 38 47 47 41 31 31
39 40 41 33 30 25 29 31 30 33 28 28 28 23 23 23 24 24 26 27 27 26 32 31 31 34 43 46 45 35 32 31
39 42 39 32 28 28 31 31 31 28 30 28 25 19 20 22 21 23 26 26 25 27 36 39 36 34 40 50 41 37 34 29
42 44 34 33 30 28 31 29 26 27 29 26 21 17 19 19 19 22 23 25 28 28 32 33 32 35 44 47 35 32 31 29
41 36 33 32 30 29 27 25 25 28 27 23 18 18 17 16 16 17 24 22 29 26 30 36 38 37 43 45 36 33 32 34
23 29 31 31 30 25 26 25 26 26 23 19 18 18 16 14 15 14 16 22 28 29 27 37 39 46 40 34 35 33 36 35
23 26 29 32 26 30 27 27 26 24 19 18 19 18 15 12 12 12 10 15 23 22 27 37 45 48 39 35 36 39 34 31
26 28 31 31 29 29 28 27 24 24 16 18 17 14 10 10 9 9 11 12 22 20 26 43 43 48 41 42 40 34 30 28
28 30 32 31 31 25 28 28 26 22 17 18 16 12 10 9 8 8 9 12 15 21 27 32 24 28 30 33 32 32 32 28
30 30 34 36 32 32 30 28 25 23 19 18 17 12 11 8 6 6 8 8 16 14 26 30 20 25 25 31 32 33 28 31
32 37 37 35 31 28 28 24 26 25 20 19 17 11 8 6 4 1 3 10 13 10 20 27 22 25 26 24 24 21 23 23
35 36 33 31 29 30 24 24 28 25 22 21 18 13 9 6 5 4 6 7 8 10 11 12 14 14 15 19 19 21 21 22
37 40 36 35 34 29 23 25 28 26 24 23 19 15 12 8 9 7 6 7 8 9 10 11 12 13 13 14 16 18 19 18
38 40 39 37 30 31 27 27 26 27 25 24 20 19 17 13 10 9 10 10 10 11 12 13 14 14 14 13 13 15 17 18
40 41 38 37 36 34 29 25 25 27 27 25 24 24 21 18 17 16 14 14 14 14 14 13 14 12 14 15 16 17 19 20
36 35 35 34 38 39 33 30 29 30 30 31 29 27 25 23 21 19 18 18 19 19 19 19 18 18 19 20 20 21 23 25
36 37 37 36 44 38 35 33 33 32 34 34 33 31 29 27 25 22 23 23 22 21 23 23 23 24 25 24 25 27 28 29

GFSFLT1_500_spd_093.txt.gz
Wind_Speed
36 34 36 36 36 36 34 33 29 34 33 31 28 30 27 27 26 28 30 30 26 23 25 28 30 32 32 29 30 35 33 41
39 37 38 37 38 36 34 32 33 32 31 29 32 29 27 27 26 29 30 28 28 22 23 30 40 30 29 29 30 34 35 39
37 37 39 38 37 36 34 36 35 25 29 30 34 28 26 26 27 30 30 27 28 26 28 27 34 34 35 32 34 33 41 43
37 38 39 38 37 36 33 35 34 26 29 33 31 24 26 25 29 29 27 27 28 30 28 26 34 34 34 39 36 34 40 43
37 39 38 37 37 35 35 34 34 27 31 32 26 25 24 26 28 27 26 28 27 29 35 32 35 39 38 37 36 37 42 44
37 37 37 37 38 36 34 36 33 29 32 27 24 24 25 27 27 25 26 27 29 30 30 32 35 35 40 40 39 42 45 47
37 36 36 36 36 32 34 34 30 28 28 23 23 24 27 27 24 25 26 28 31 30 34 34 41 40 35 32 38 43 45 46
36 35 34 37 32 31 35 32 28 28 22 23 22 26 26 24 23 25 27 24 25 30 28 33 37 39 36 37 38 42 46 39
35 32 31 29 29 31 33 28 30 22 25 21 22 24 23 21 22 23 24 22 27 25 25 26 33 36 36 33 40 46 44 34
30 25 23 26 26 31 30 28 27 24 20 19 22 22 21 19 19 20 21 22 29 20 22 24 31 35 38 33 41 46 43 33
23 22 25 28 29 29 27 28 25 26 18 20 21 20 18 17 19 19 19 19 23 18 27 28 33 38 39 39 43 37 37 34
24 25 29 30 29 28 26 25 28 27 18 21 21 19 16 17 19 18 18 17 16 16 24 24 32 37 39 44 40 36 34 35
26 29 30 31 31 30 29 30 33 30 20 21 20 19 15 15 17 14 13 12 11 11 13 25 22 24 28 37 42 36 30 28
28 31 32 34 36 34 36 33 34 26 22 21 21 20 16 15 13 10 8 7 7 7 14 21 23 19 25 22 29 32 25 27
27 30 35 36 39 43 39 30 28 27 24 22 21 21 19 17 15 13 11 7 8 9 10 11 15 14 18 17 17 18 23 20
30 29 36 37 37 31 38 35 30 30 26 24 23 22 21 21 17 15 15 14 12 11 12 13 14 18 17 16 16 25 20 21
31 33 35 39 42 38 38 32 30 28 24 24 24 24 24 24 21 17 15 16 16 15 16 16 14 14 16 17 18 20 22 23
31 32 37 37 44 37 43 37 30 29 23 24 28 29 27 28 25 22 19 18 16 17 17 16 17 18 18 20 22 24 26 24
31 33 34 36 36 37 35 32 33 33 32 29 31 34 32 31 30 27 25 23 22 21 20 19 20 21 22 22 23 23 23 23

GFSFLT1_500_spd_096.txt.gz
Wind_Speed
39 39 36 37 37 39 37 31 27 28 32 32 32 33 32 29 27 27 28 27 26 27 29 29 28 31 29 24 30 28 26 22
36 37 38 36 38 38 36 32 26 29 30 32 31 30 30 30 26 26 27 25 26 28 30 28 27 29 28 30 27 31 31 28
41 42 43 39 40 39 37 33 28 29 31 31 33 31 31 27 24 27 27 25 27 30 31 31 27 29 32 32 33 32 36 37
40 41 40 38 38 38 37 33 32 30 30 34 35 32 28 24 26 26 26 24 28 29 30 30 32 31 38 31 32 31 32 29
40 39 41 41 40 37 36 32 33 30 29 36 34 27 25 25 25 23 24 25 29 28 29 28 33 30 28 34 36 35 37 31
44 43 40 40 38 34 36 31 31 30 32 36 32 25 24 27 22 22 23 26 29 28 29 30 29 34 35 34 37 38 34 33
34 39 37 38 36 36 37 29 32 30 34 34 29 23 26 22 20 22 25 27 29 28 29 30 30 32 33 36 43 34 36 39
40 37 36 37 34 33 35 24 34 31 33 33 28 25 24 20 19 23 27 27 29 29 27 27 30 33 37 40 44 39 40 38
37 38 34 32 32 34 23 33 35 27 31 31 27 25 21 18 20 24 25 27 28 27 30 29 33 35 41 39 38 38 36 40
34 32 31 29 32 25 29 32 27 27 30 26 22 22 19 17 21 24 25 28 28 26 29 34 29 31 35 44 43 38 36 34
28 28 28 24 24 27 28 24 27 28 25 24 22 21 17 18 22 24 26 27 28 30 26 23 23 23 34 45 42 39 36 38
22 24 24 23 21 26 25 26 27 25 25 26 18 17 18 19 21 24 25 26 27 29 25 24 25 28 28 32 40 35 30 45
20 22 22 22 24 25 27 26 25 23 28 24 17 19 20 20 19 23 22 23 24 21 25 24 30 29 33 37 37 36 37 47
21 22 24 26 28 29 29 27 26 26 28 28 21 21 21 20 19 21 18 18 18 15 14 11 19 22 30 38 35 37 41 38
19 22 25 28 30 32 32 31 31 33 32 32 23 22 21 22 20 21 18 16 14 11 8 10 15 16 18 27 32 36 34 29
22 21 25 27 33 36 38 37 37 35 36 31 24 23 22 22 22 22 17 18 13 11 10 8 10 20 18 24 24 24 33 32
23 22 23 27 34 39 40 41 42 38 32 31 24 24 22 22 23 23 19 17 15 14 10 12 14 18 15 18 21 22 23 23
22 23 23 28 31 38 41 45 38 34 40 28 24 23 24 26 26 24 21 20 16 15 16 17 18 20 21 22 23 26 31 28
20 22 25 28 31 36 42 43 43 37 34 30 26 26 27 28 28 26 24 24 23 21 19 20 21 22 24 24 24 25 26 27

GFSFLT1_500_spd_099.txt.gz
Wind_Speed
48 49 45 43 42 40 42 38 37 35 33 34 34 33 34 33 33 32 32 29 27 29 27 24 24 26 26 27 31 29 31 25
46 44 41 42 43 39 40 38 34 31 27 32 33 33 34 34 34 32 29 26 27 29 26 24 23 26 26 26 30 25 25 26
40 40 41 39 37 39 38 37 34 30 25 32 33 33 34 34 34 31 28 25 29 29 25 24 25 27 27 28 31 33 25 27
38 38 46 41 37 35 36 34 34 33 27 30 32 34 35 32 32 25 26 27 29 28 24 25 26 26 29 32 28 34 32 29
45 46 44 44 40 36 36 39 36 33 30 28 32 35 34 32 31 27 28 27 27 27 24 25 27 28 28 33 29 35 33 31
48 46 42 35 37 39 39 36 38 33 33 28 35 35 33 32 30 29 26 28 27 25 24 26 27 28 30 29 33 27 32 32
46 44 40 39 38 40 37 41 36 32 30 29 36 37 29 30 29 28 27 29 26 24 25 27 29 29 30 29 31 28 29 35
33 34 33 34 37 38 37 37 31 29 31 34 39 36 28 30 29 26 28 27 27 25 26 29 29 30 31 35 31 30 30 38
32 37 29 32 30 31 34 33 28 31 33 38 38 31 29 28 29 28 25 26 25 26 29 29 30 29 33 33 31 34 31 39
30 31 32 36 40 37 33 33 35 37 36 36 34 29 29 28 28 26 26 23 25 28 30 29 32 33 31 35 34 33 31 39
27 31 33 34 36 35 34 36 34 33 32 33 29 26 28 28 29 30 23 22 26 29 30 32 32 30 32 29 33 37 41 39
24 26 30 33 32 31 32 30 28 26 28 27 25 26 26 26 24 22 21 23 26 28 29 30 30 27 30 30 34 38 40 37
20 24 26 27 30 32 31 28 25 25 24 23 26 28 25 24 21 22 22 23 25 27 27 26 24 28 24 27 34 35 40 42
21 24 25 26 29 33 27 27 25 25 23 23 28 26 23 21 23 22 23 22 23 24 23 19 27 22 26 28 25 29 42 37
18 21 24 25 27 29 27 28 26 25 27 28 30 25 26 24 23 22 24 21 22 22 20 20 14 17 27 29 28 34 39 42
16 17 20 24 24 28 28 28 28 29 32 32 32 29 29 26 22 22 24 21 19 21 18 19 10 11 15 22 28 36 41 37
18 17 19 23 24 27 30 31 32 34 34 35 34 33 33 30 22 23 23 21 18 17 17 14 15 9 9 18 22 31 33 28
17 15 17 20 23 27 32 35 37 38 38 38 36 35 34 29 23 25 24 22 20 17 17 17 16 15 15 13 17 24 28 31
17 17 17 19 23 27 31 35 39 40 40 39 39 40 39 33 30 28 26 23 23 21 19 19 19 18 19 19 20 22 24 27

GFSFLT1_500_spd_102.txt.gz
Wind_Speed
58 59 61 56 51 48 48 46 42 39 38 39 41 40 39 37 33 33 35 37 37 36 29 27 29 26 26 28 27 28 29 31
55 56 60 53 50 51 49 50 45 41 37 38 35 35 38 36 33 34 36 37 38 35 28 29 27 25 26 27 28 27 26 28
47 47 55 52 50 50 50 48 45 39 35 33 36 39 39 39 33 33 36 36 36 33 30 29 25 24 26 29 28 27 23 27
46 43 45 47 54 48 44 43 41 35 33 34 37 38 38 35 33 35 36 37 37 34 32 29 25 24 27 27 25 26 25 26
44 43 44 51 50 48 51 42 36 36 33 32 32 33 38 36 36 37 37 36 38 34 32 28 26 25 24 25 25 25 26 25
49 50 49 51 48 44 38 39 39 38 34 30 30 34 40 39 35 37 37 36 38 33 33 28 29 25 24 24 25 27 26 29
49 52 52 45 41 38 39 35 33 33 32 31 28 37 40 38 36 37 35 36 36 35 33 30 29 26 25 25 25 27 28 30
45 42 33 36 34 34 37 36 37 34 33 31 31 35 42 37 38 37 33 35 34 36 35 31 29 27 28 26 27 28 30 31
40 38 37 31 33 38 37 38 36 32 35 36 36 41 40 38 38 34 33 33 35 38 34 31 30 29 30 28 29 29 30 32
30 24 29 34 35 35 33 33 28 34 38 35 37 36 37 38 36 32 31 35 37 36 34 31 28 31 31 30 32 32 31 30
22 19 30 37 37 41 36 32 31 33 31 34 36 34 35 36 32 32 34 36 35 34 31 28 31 33 32 34 35 32 33 34
21 19 25 29 32 35 37 35 33 34 34 35 35 32 35 31 32 34 35 37 39 29 28 29 31 32 35 35 38 32 31 34
25 26 29 23 28 29 28 27 33 34 33 30 31 32 31 31 32 34 36 38 29 28 27 27 29 33 32 33 29 30 36 38
28 22 26 28 25 23 29 30 33 34 31 29 30 31 30 32 35 36 32 27 28 28 25 26 27 30 30 36 33 31 34 35
18 20 22 24 26 31 31 32 32 34 33 29 28 28 30 32 32 29 22 26 27 26 25 24 27 28 31 26 25 27 35 38
15 18 19 24 29 32 31 32 34 34 32 30 28 29 29 33 27 28 28 29 28 26 26 23 26 24 24 20 30 30 25 30
16 19 19 20 26 30 34 32 33 32 34 34 33 32 31 31 29 30 30 30 30 28 27 23 24 21 22 12 27 31 28 29
14 15 16 17 22 26 28 31 32 33 33 35 35 37 35 34 34 31 36 36 33 28 28 23 21 19 19 10 16 27 26 29
13 15 16 16 18 23 28 30 31 33 34 36 38 39 35 34 36 31 40 38 34 30 29 26 22 19 18 18 13 19 22 25

GFSFLT1_500_spd_105.txt.gz
Wind_Speed
52 55 60 64 63 62 61 55 45 41 36 44 47 45 44 45 42 41 42 37 35 34 34 33 35 32 28 29 30 29 28 28
51 55 59 61 62 62 60 58 49 46 44 42 44 46 46 45 42 41 38 34 36 35 34 32 34 33 29 30 29 29 27 29
49 56 60 62 59 59 60 58 49 48 48 43 42 46 47 46 45 43 35 34 37 36 34 32 36 35 30 30 29 30 30 28
50 53 56 58 58 58 60 56 50 51 48 46 45 46 48 48 47 37 33 32 39 39 34 35 37 33 31 29 30 29 30 25
51 51 53 54 55 55 58 53 50 51 45 44 46 47 46 46 40 37 36 41 43 40 35 35 37 35 30 31 30 29 29 26
48 47 50 56 57 54 55 54 51 46 41 36 42 46 45 44 43 40 38 41 41 40 34 35 37 35 31 32 31 30 27 27
42 46 50 56 54 50 49 51 51 47 40 35 39 42 41 41 40 39 38 40 40 39 37 36 37 35 33 33 32 31 29 27
42 45 45 54 51 48 44 49 47 44 38 38 39 40 39 42 43 41 40 39 40 38 38 36 37 35 35 35 33 31 30 29
37 41 39 44 41 44 38 39 40 40 38 39 43 47 45 44 40 43 41 39 40 37 37 38 36 34 36 35 36 32 32 31
33 25 32 35 36 36 35 37 33 36 40 42 38 41 43 41 41 42 38 38 39 37 38 38 34 36 35 36 36 33 35 33
26 25 25 29 38 36 40 36 33 35 38 39 42 44 42 41 40 39 38 40 36 37 39 35 35 37 36 38 35 36 39 36
31 20 24 24 28 43 38 34 33 37 41 40 38 39 38 35 35 36 36 36 35 39 36 36 39 36 37 36 38 41 42 40
26 23 24 20 21 24 32 39 40 39 38 36 32 36 35 35 36 34 32 34 36 37 36 38 39 33 34 36 38 39 40 37
19 15 17 18 21 24 29 36 42 41 38 35 32 35 29 33 32 30 33 33 36 36 39 38 33 34 34 36 35 37 38 35
6 11 15 19 23 27 22 25 30 32 35 28 31 29 30 30 31 32 34 33 34 36 41 32 34 35 35 36 35 37 39 41
7 10 14 16 18 22 24 24 21 19 25 30 31 30 29 30 31 32 31 33 37 40 32 34 35 35 34 33 35 41 41 32
8 10 11 12 14 19 21 23 25 26 22 29 29 31 31 31 31 32 31 36 37 30 33 35 35 34 33 33 32 39 27 28
9 11 14 12 16 19 21 26 25 27 29 23 26 33 34 34 33 32 28 32 31 34 34 37 35 35 32 31 28 34 24 31
10 7 9 12 14 17 19 23 24 28 31 32 35 37 36 36 36 34 34 32 28 30 36 38 36 35 32 32 24 28 18 26

GFSFLT1_500_spd_108.txt.gz
Wind_Speed
50 50 51 53 55 57 60 62 62 60 57 52 51 47 47 44 43 43 42 43 41 43 42 34 32 30 28 30 33 24 26 30
59 59 61 62 59 59 59 61 62 64 57 48 52 43 43 44 45 45 45 45 44 42 40 36 32 31 27 31 31 26 28 31
71 71 68 69 65 63 63 61 63 62 62 51 50 45 42 47 45 50 49 47 43 44 41 37 31 31 29 31 31 27 30 31
84 83 80 75 76 68 65 65 64 63 59 60 51 51 45 46 46 48 49 46 45 44 40 36 31 34 32 32 31 30 32 30
86 82 77 73 71 71 66 64 63 65 60 58 51 48 45 39 41 46 47 49 46 44 40 37 34 37 32 31 32 32 34 31
65 65 63 63 66 65 68 65 63 64 65 53 50 48 45 44 41 44 48 50 47 46 42 38 39 37 34 32 32 33 35 32
41 41 44 48 55 55 61 65 64 64 57 48 50 44 46 44 42 44 50 49 49 48 44 40 39 38 35 33 34 34 34 34
30 30 32 36 42 49 52 56 58 56 50 49 44 42 40 39 38 43 49 48 51 46 45 40 40 37 34 35 35 33 34 35
25 28 32 36 40 44 49 54 55 47 46 47 41 41 38 38 40 45 50 48 50 50 41 38 41 35 34 36 36 33 34 33
20 25 29 31 35 38 40 46 48 42 44 46 46 46 41 42 46 43 46 49 49 42 38 39 36 34 36 37 35 33 33 32
25 21 30 26 26 32 37 38 42 44 43 50 48 48 47 48 45 43 43 46 46 46 37 37 33 35 36 36 35 34 33 34
12 15 19 17 25 20 34 39 39 36 38 42 43 45 48 48 45 44 45 46 50 37 39 37 33 35 38 36 36 34 36 36
18 8 14 13 17 19 30 25 28 36 31 35 39 46 45 42 41 42 45 49 44 41 38 35 36 36 34 36 35 36 38 38
11 20 17 14 11 8 10 31 29 32 30 38 40 42 41 42 42 42 45 49 43 39 34 35 34 34 36 35 38 37 37 39
19 15 12 10 10 11 14 16 27 26 34 33 39 44 46 43 42 43 45 43 39 30 31 31 34 34 34 38 38 38 39 41
7 5 3 5 9 9 12 13 14 12 27 40 34 38 41 43 41 42 34 35 30 29 30 33 32 34 36 39 39 40 40 39
1 3 3 6 9 7 11 13 13 19 20 22 37 25 26 37 30 31 31 30 30 30 31 29 31 35 40 38 41 40 39 40
1 2 6 6 10 10 10 9 14 12 10 9 18 28 29 30 32 31 33 31 29 29 31 31 34 34 34 37 41 40 39 39
5 4 5 7 8 10 11 10 11 14 18 25 26 21 23 26 32 32 33 31 31 30 31 27 33 30 33 37 41 39 39 37

GFSFLT1_500_spd_111.txt.gz
Wind_Speed
49 50 50 50 50 52 51 50 49 52 55 57 54 52 51 53 49 44 41 43 41 39 39 40 38 39 38 33 29 22 24 26
51 53 54 55 56 56 56 57 55 55 54 54 54 52 50 52 51 46 41 43 46 42 41 41 38 39 40 37 30 24 23 27
56 57 59 60 61 62 62 63 63 62 57 55 54 54 52 51 53 51 47 44 48 44 42 43 41 41 40 38 31 27 26 28
64 65 67 69 69 70 71 71 71 70 65 60 58 56 57 54 58 52 47 43 48 44 45 44 43 43 40 38 33 28 30 30
73 76 78 80 80 79 80 81 80 77 72 66 59 56 59 50 54 51 42 48 51 44 47 46 43 42 40 39 36 30 31 30
80 83 88 85 79 72 69 78 84 79 75 71 65 55 59 53 53 49 50 50 48 47 48 46 43 43 42 39 38 29 32 33
64 57 46 44 44 46 49 65 80 76 73 73 67 59 59 54 49 47 52 45 48 47 44 44 44 45 43 40 36 31 34 34
42 31 30 28 25 26 31 41 55 62 65 65 67 62 59 49 46 50 51 45 51 45 43 44 46 45 45 42 36 34 33 35
24 20 21 20 17 18 21 25 37 45 52 56 59 59 52 44 45 50 50 47 49 46 46 48 47 46 42 40 38 36 35 35
24 16 16 15 19 16 20 26 32 37 41 42 46 50 42 43 44 47 49 51 49 47 47 49 45 40 38 38 39 37 38 37
12 16 18 19 22 24 21 26 29 35 36 38 41 40 42 43 45 45 49 48 43 45 45 43 40 37 39 38 39 39 39 36
12 9 13 14 16 22 21 31 34 35 34 35 40 42 44 46 47 49 48 40 37 38 40 43 39 43 40 40 39 39 37 34
13 9 3 7 3 10 10 20 28 27 35 40 42 43 48 51 50 49 43 39 39 38 41 43 47 48 43 40 41 37 34 34
13 17 4 11 4 2 10 18 30 29 32 34 38 41 46 49 51 50 45 44 42 42 42 46 51 49 44 40 39 36 35 35
9 13 8 4 2 3 9 10 20 23 31 29 36 41 47 47 48 46 47 45 43 43 45 48 50 50 44 40 39 37 35 33
15 11 7 3 3 5 4 4 16 7 18 22 23 31 38 41 44 45 42 40 41 42 45 48 47 42 40 39 38 36 34 35
8 7 4 5 2 7 4 4 6 20 17 24 33 26 25 34 38 42 47 44 43 42 44 44 41 33 36 34 33 32 33 32
9 6 3 2 3 5 8 5 5 8 9 5 23 32 29 28 31 36 42 40 45 42 47 32 28 32 31 31 29 29 31 35
4 4 5 4 3 2 4 6 1 8 10 12 24 15 27 36 35 33 32 28 26 27 24 27 28 29 29 30 32 33 33 35

GFSFLT1_500_spd_114.txt.gz
Wind_Speed
54 54 53 52 52 53 52 52 51 51 52 54 54 56 54 51 50 49 48 44 39 39 40 42 39 38 39 40 32 31 31 28
54 54 54 56 56 56 57 57 59 57 56 55 53 52 54 53 52 51 48 46 44 43 43 45 45 38 37 40 36 34 30 31
54 54 55 56 57 58 59 59 60 60 59 59 57 54 54 54 51 51 52 48 47 46 45 45 46 39 40 39 39 37 34 31
55 56 58 59 59 60 61 63 63 64 64 65 63 61 59 56 51 49 51 47 47 49 47 44 43 49 43 42 41 39 38 33
57 59 61 62 64 65 67 69 71 73 74 73 72 67 64 58 54 51 54 47 48 49 47 48 51 54 49 44 41 40 42 35
56 59 61 65 68 71 73 75 78 78 80 82 81 77 71 67 64 56 52 52 49 49 52 52 54 53 50 45 41 42 41 38
62 64 68 74 77 79 82 84 85 87 87 83 85 84 80 78 72 63 60 59 51 46 56 53 53 52 51 46 42 44 42 41
69 69 65 50 43 47 46 48 53 56 65 78 87 89 86 84 79 69 68 63 54 48 54 55 53 50 52 45 45 45 43 42
43 35 31 31 34 34 32 34 33 35 41 54 70 76 79 82 80 74 71 63 53 50 49 56 53 52 53 49 46 45 43 43
31 27 31 28 26 26 25 25 25 24 24 34 44 51 59 64 69 72 68 57 49 49 51 53 52 53 54 47 42 44 46 38
26 27 27 29 29 23 22 19 19 17 14 19 30 42 46 50 58 59 52 50 49 50 52 51 51 51 50 44 43 43 39 32
13 7 14 18 23 23 22 24 20 16 18 23 27 32 36 38 37 38 43 49 48 48 50 49 48 48 48 43 43 38 36 33
11 11 18 14 4 3 13 22 21 23 20 21 28 30 35 37 38 41 44 45 46 45 45 43 46 46 45 45 44 40 38 38
7 9 16 4 7 12 3 9 19 18 17 24 28 32 36 37 38 43 43 47 44 38 37 40 43 46 45 44 44 42 39 41
8 5 8 7 3 9 4 3 15 17 16 19 28 35 38 38 40 43 46 45 44 40 40 40 44 43 42 43 43 42 43 45
16 9 7 9 6 8 12 8 6 13 20 17 22 32 36 40 43 46 48 49 46 43 42 43 43 44 43 44 45 44 46 50
12 9 7 6 10 6 7 5 2 6 15 14 18 17 30 33 37 39 42 46 48 47 44 40 42 47 51 46 48 50 46 47
10 4 3 2 3 6 7 6 3 3 14 10 7 24 21 28 28 29 33 38 45 44 44 45 46 45 48 47 48 44 41 38
5 5 4 4 2 2 5 5 1 6 6 15 4 23 27 20 29 27 34 31 34 34 41 46 44 46 49 52 53 38 34 36

GFSFLT1_500_spd_117.txt.gz
Wind_Speed
52 49 50 50 50 53 55 53 52 52 53 54 55 56 56 56 51 48 48 47 44 42 41 37 37 37 34 37 34 35 35 31
53 53 55 56 55 55 57 58 57 56 55 55 55 57 58 57 54 48 50 49 47 45 45 41 38 37 37 38 40 34 37 32
54 54 55 56 58 60 59 60 62 63 63 61 60 58 59 58 56 55 52 52 49 49 46 44 41 41 41 39 39 38 36 36
58 58 57 57 58 60 60 62 63 64 66 65 64 63 62 62 57 55 54 52 49 47 44 45 46 44 43 41 38 39 35 37
59 59 58 58 58 59 60 62 65 67 67 66 65 65 64 62 61 57 56 52 49 49 49 44 48 44 42 41 41 42 46 38
52 55 59 57 60 61 61 62 65 67 69 69 69 69 69 68 66 63 59 56 55 54 51 48 49 46 43 44 46 45 47 43
45 47 50 53 56 59 60 63 65 69 72 75 76 76 75 75 73 71 68 66 59 59 54 51 51 49 49 47 48 47 47 46
48 50 51 54 57 61 64 66 70 75 78 81 81 82 84 85 82 81 77 72 68 62 61 59 53 52 52 50 50 45 47 48
49 51 54 56 55 53 50 51 51 51 52 55 60 64 71 80 85 88 86 80 76 70 69 64 61 55 57 54 52 51 52 49
40 39 33 27 34 34 33 34 33 35 35 39 42 46 50 57 72 92 93 90 80 77 72 69 67 62 59 57 54 55 49 45
30 29 30 29 32 34 36 30 29 32 28 29 33 39 46 50 60 69 75 86 88 80 75 73 70 66 59 58 57 57 48 46
27 25 22 22 25 22 25 29 35 36 33 24 25 26 32 38 43 45 48 56 66 70 72 71 72 62 60 61 57 51 44 45
17 16 18 15 19 14 15 21 25 29 27 20 19 16 14 24 35 39 40 42 45 48 51 56 55 60 61 58 51 47 45 48
7 14 10 11 13 13 8 8 12 10 17 19 19 18 17 20 28 35 36 39 43 44 46 46 52 59 56 55 52 47 48 47
5 7 9 5 5 10 11 12 9 12 18 20 17 19 21 25 27 29 31 33 35 37 40 44 46 48 52 49 41 41 42 43
10 12 5 5 7 12 9 9 15 7 3 25 13 20 19 24 29 29 33 35 36 38 40 41 43 43 42 40 41 44 46 44
10 10 5 5 6 6 8 7 10 15 13 9 14 13 17 23 26 30 32 35 37 41 42 43 43 43 41 43 45 43 46 47
8 5 3 1 2 5 8 7 4 8 10 6 8 9 19 22 27 29 32 35 38 40 41 40 44 42 44 45 43 46 51 49
4 3 3 3 3 3 6 7 11 11 13 3 1 1 4 15 28 37 34 37 35 41 44 43 44 47 49 51 51 53 52 52

GFSFLT1_500_spd_120.txt.gz
Wind_Speed
59 60 53 50 51 51 52 52 52 50 51 51 52 52 53 52 53 55 51 48 45 45 43 37 38 40 35 30 34 31 27 30
59 53 53 54 53 54 54 55 56 54 54 54 54 55 56 56 56 54 54 53 51 48 47 45 36 41 40 36 34 37 31 31
65 65 60 56 55 54 54 56 57 58 58 58 58 56 56 56 56 57 58 57 54 54 52 48 44 41 42 42 37 38 36 34
57 53 57 58 56 56 55 55 57 58 59 60 63 62 61 60 57 55 55 58 56 59 55 52 48 45 44 44 41 41 40 38
47 48 51 53 57 58 58 57 56 60 63 63 64 65 65 64 65 64 62 59 59 56 54 52 51 47 46 44 41 41 45 41
45 46 47 48 50 52 55 58 60 60 62 65 66 66 67 66 67 67 65 64 61 60 59 55 53 53 53 46 41 42 44 44
51 45 42 44 47 49 51 51 51 54 63 64 64 67 68 68 68 69 66 64 61 60 61 57 56 52 55 52 42 41 45 46
47 46 44 42 44 47 49 51 53 55 57 61 63 63 65 69 71 72 70 70 66 65 64 64 59 54 58 52 50 48 47 49
45 45 45 45 47 47 49 51 55 58 61 66 69 72 73 76 76 77 76 76 73 68 68 67 62 59 58 56 53 54 50 51
41 42 42 39 40 41 40 41 42 41 42 42 44 46 52 59 64 73 81 85 83 78 75 74 68 64 64 63 62 53 53 52
33 33 30 30 29 29 30 32 36 36 36 32 28 29 31 37 45 51 58 68 82 88 84 78 80 72 71 67 63 59 57 57
32 31 27 26 23 21 24 27 27 25 31 34 33 33 36 38 41 44 52 58 62 73 91 90 88 53 75 71 70 63 62 62
25 17 17 14 17 17 20 20 18 21 24 27 31 35 39 37 34 40 45 49 58 62 74 89 74 44 57 67 68 66 65 65
12 7 5 8 10 12 9 8 12 11 15 16 17 17 20 25 26 22 24 32 39 45 48 65 67 68 55 68 69 67 66 64
13 7 6 4 3 10 8 13 13 15 12 17 24 21 18 18 14 8 10 17 23 27 30 34 40 45 47 55 60 65 67 61
13 2 6 2 2 6 7 8 7 15 17 13 18 22 20 14 10 13 11 14 22 18 30 38 40 45 45 48 54 64 60 52
10 10 6 4 4 7 9 10 11 11 16 18 10 15 21 15 13 11 10 9 3 22 21 23 32 34 30 35 41 44 49 54
9 6 6 6 6 7 9 11 14 13 15 12 12 7 5 18 10 12 15 18 19 23 25 26 26 28 27 34 35 39 46 50
4 7 5 5 6 5 9 12 14 15 17 14 10 12 6 6 13 20 17 16 21 25 29 32 34 34 38 37 32 46 43 47

GFSFLT1_500_spd_123.txt.gz
Wind_Speed
67 62 59 53 52 52 48 49 52 53 51 52 54 53 54 54 53 50 52 52 56 54 40 42 37 38 34 36 34 38 40 37
75 71 55 51 57 60 60 57 54 55 56 54 54 56 55 55 55 54 53 52 48 47 50 51 45 40 37 39 38 37 42 39
72 70 68 56 53 56 57 61 60 56 57 59 57 56 56 57 57 55 55 55 55 59 54 54 43 43 44 45 43 41 42 45
60 57 57 54 53 53 56 57 57 58 59 58 57 57 57 59 59 59 58 59 58 57 57 59 56 48 47 49 50 49 42 47
57 54 47 49 49 48 51 56 57 57 57 58 58 57 55 58 60 60 61 60 61 61 58 56 59 49 53 48 52 54 50 48
45 50 52 53 54 52 52 51 54 58 58 58 57 58 58 58 61 62 63 64 64 63 62 56 58 59 57 60 60 55 55 50
45 46 49 52 54 53 52 51 50 52 54 56 56 57 59 60 63 64 66 66 67 67 66 66 61 59 58 60 59 68 64 55
50 51 56 55 51 48 46 48 47 49 50 52 53 55 57 59 63 66 67 68 67 66 67 67 68 62 60 58 56 61 64 61
54 52 48 50 50 50 49 46 47 49 49 51 54 56 56 56 57 62 66 67 67 67 67 68 67 67 64 62 60 62 66 58
40 43 44 42 40 41 42 42 44 46 49 51 53 57 61 65 67 67 68 69 70 71 71 70 68 68 68 67 63 63 65 63
42 40 35 34 35 30 29 29 29 30 32 34 34 37 36 35 39 45 55 69 78 80 77 77 77 72 72 72 69 68 68 63
33 33 35 26 21 21 20 23 29 30 25 24 24 25 26 25 27 31 36 39 48 57 72 86 83 77 75 75 73 74 63 68
28 26 19 13 13 11 13 10 8 11 17 19 20 23 23 22 29 36 43 50 46 47 53 60 77 88 81 79 78 79 54 60
14 16 12 12 8 8 10 11 8 8 9 13 16 15 10 12 19 24 30 32 40 47 51 52 55 63 81 85 82 80 72 67
12 9 8 12 10 12 10 15 13 13 14 6 10 15 20 20 14 14 18 17 16 20 28 38 44 45 52 75 82 83 79 74
9 11 9 11 9 11 14 15 15 12 17 17 13 10 13 17 14 16 11 10 10 10 15 24 31 34 40 47 75 79 79 51
6 10 6 10 11 11 9 11 14 14 13 17 15 6 9 14 16 12 8 5 8 17 8 10 19 28 36 30 51 67 57 82
5 6 6 7 8 10 11 10 12 14 16 10 16 9 6 6 14 15 10 15 6 7 3 9 10 10 20 34 41 61 50 65
2 4 6 7 6 7 8 9 11 15 18 19 17 11 12 8 4 13 13 11 11 4 10 8 8 14 12 23 28 34 41 43

GFSFLT1_500_spd_126.txt.gz
Wind_Speed
67 65 62 57 52 50 49 48 49 56 58 58 52 56 56 57 57 58 55 53 53 53 57 71 46 54 48 40 37 37 36 34
63 63 64 65 64 52 48 49 52 56 63 65 64 55 61 62 62 61 61 54 53 51 52 56 67 61 49 36 43 42 40 38
65 63 62 60 55 54 54 52 53 56 57 68 69 65 59 64 65 66 65 63 56 55 55 56 50 56 46 50 51 45 42 39
55 52 51 49 50 52 53 56 56 56 60 64 69 68 66 63 67 68 67 65 63 59 57 58 68 60 53 53 47 50 44 44
48 47 47 48 49 52 53 55 57 55 55 62 68 67 68 68 63 68 67 66 65 63 62 60 62 60 55 55 48 47 48 51
45 45 46 47 49 51 54 56 58 61 62 60 59 62 65 67 66 63 66 67 67 65 65 64 63 61 58 56 50 58 57 58
48 50 50 49 51 52 55 58 60 61 61 59 59 56 58 63 64 66 66 66 65 66 67 67 67 65 64 62 59 54 55 61
51 54 54 56 57 57 59 59 57 54 54 55 54 55 53 55 60 65 68 67 69 68 69 69 70 70 68 65 64 61 58 58
55 57 55 53 49 48 51 53 53 54 52 50 50 51 51 50 52 57 64 68 70 71 73 72 72 72 71 69 68 68 63 64
43 44 45 45 43 40 41 43 44 44 44 47 49 49 50 50 49 49 51 56 62 70 71 70 71 72 71 72 70 72 68 68
49 47 38 34 33 35 30 31 31 29 26 26 31 39 45 48 49 51 52 55 56 59 61 66 68 70 71 72 72 70 70 73
36 33 25 29 30 23 21 19 19 26 26 25 24 25 28 30 30 31 35 42 49 57 65 68 67 68 71 72 71 71 72 74
22 24 21 23 19 19 10 18 16 13 13 19 16 12 14 17 19 20 24 27 32 36 40 48 61 74 78 73 73 74 73 71
22 17 16 7 9 10 14 14 18 15 16 13 8 7 8 11 12 11 22 28 33 37 43 49 53 59 62 79 81 78 76 75
13 10 7 7 7 12 9 12 16 15 14 11 5 1 9 12 18 10 10 16 16 22 26 32 42 50 52 59 64 74 78 79
11 6 8 6 4 8 7 11 15 15 15 16 13 6 8 17 12 15 12 9 13 18 17 20 21 30 47 50 51 58 68 78
7 4 8 5 6 8 6 10 12 16 19 20 15 9 2 4 7 10 5 12 13 19 12 18 23 18 26 41 47 50 53 67
4 5 4 4 6 7 7 6 8 17 20 20 16 17 12 6 8 8 16 14 13 15 13 12 12 17 21 26 34 37 39 38
4 4 5 2 2 3 6 11 18 20 21 21 19 14 17 17 14 8 8 12 17 17 11 14 15 9 13 14 21 25 26 27